Blythe, CA

10:43 PM PDT on June 22, 2018 (GMT -0700)
Blythe

Weather History for KBLH - October, 2017

Change the Weather History Date:

Wednesday, October 11, 2017

  Actual Average Record
Temperature  
Mean Temperature 73 °F -  
Max Temperature 93 °F 91 °F 104 °F (1999)
Min Temperature 55 °F 61 °F 50 °F (2013)
Cooling Degree Days 8    
Growing Degree Days 23 (Base 50)    
Moisture  
Dew Point 23 °F    
Average Humidity 15    
Maximum Humidity 26    
Minimum Humidity 9    
Precipitation  
Precipitation 0.00 in - - ()
Sea Level Pressure  
Sea Level Pressure 29.80 in    
Wind  
Wind Speed 4 mph (SSW)    
Max Wind Speed 10 mph    
Max Gust Speed -    
Visibility 10 miles    
Events      
Averages and records for this station are not official NWS values.
T = Trace of Precipitation, MM = Missing Value Source: NWS Daily Summary

Daily Weather History Graph

Daily Weather History Graph

Search for Another Location

Airport or City:

Astronomy

Oct. 11, 2017 Rise Set
Actual Time 6:40 AM PDT 6:09 PM PDT
Civil Twilight 6:15 AM PDT 6:34 PM PDT
Nautical Twilight 5:46 AM PDT 7:03 PM PDT
Astronomical Twilight 5:18 AM PDT 7:32 PM PDT
Moon 11:28 PM PDT (10/11) 12:50 PM PDT (10/11)
Length of Visible Light 12h 18m
Length of Day
11h 28m
Waning Gibbous, 58% of the Moon is Illuminated
Oct 11
Waning Gibbous
Oct 12
Last Quarter
Oct 19
New
Oct 27
First Quarter
Nov 3
Full

Hourly Weather History & Observations

Time (PDT) Temp. Dew Point Humidity Pressure Visibility Wind Dir Wind Speed Gust Speed Precip Events Conditions
12:52 AM 64.0 °F 14.0 °F 14% 29.83 in 10.0 mi NW 6.9 mph - N/A   Clear
1:52 AM 63.0 °F 16.0 °F 16% 29.83 in 10.0 mi NNW 5.8 mph - N/A   Clear
2:52 AM 66.0 °F 17.1 °F 15% 29.82 in 10.0 mi Calm Calm - N/A   Clear
3:52 AM 63.0 °F 18.0 °F 18% 29.81 in 10.0 mi SSW 3.5 mph - N/A   Clear
4:52 AM 57.9 °F 17.1 °F 20% 29.82 in 10.0 mi Calm Calm - N/A   Clear
5:52 AM 57.9 °F 15.1 °F 19% 29.83 in 10.0 mi Calm Calm - N/A   Clear
6:52 AM 55.9 °F 21.0 °F 26% 29.84 in 10.0 mi NE 4.6 mph - N/A   Clear
7:52 AM 62.1 °F 17.1 °F 18% 29.86 in 10.0 mi Calm Calm - N/A   Clear
8:52 AM 69.1 °F 19.9 °F 15% 29.87 in 10.0 mi Calm Calm - N/A   Clear
9:52 AM 73.9 °F 19.0 °F 13% 29.87 in 10.0 mi Calm Calm - N/A   Clear
10:52 AM 77.0 °F 28.0 °F 17% 29.86 in 10.0 mi Variable 4.6 mph - N/A   Clear
11:52 AM 82.0 °F 24.1 °F 12% 29.84 in 10.0 mi Calm Calm - N/A   Clear
12:52 PM 86.0 °F 21.9 °F 10% 29.81 in 10.0 mi Calm Calm - N/A   Clear
1:52 PM 89.1 °F 25.0 °F 10% 29.78 in 10.0 mi South 4.6 mph - N/A   Clear
2:52 PM 91.9 °F 28.0 °F 10% 29.76 in 10.0 mi SSW 8.1 mph - N/A   Clear
3:52 PM 91.9 °F 24.1 °F 9% 29.75 in 10.0 mi South 8.1 mph - N/A   Clear
4:52 PM 91.0 °F 25.0 °F 9% 29.74 in 10.0 mi SSE 8.1 mph - N/A   Clear
5:52 PM 89.1 °F 26.1 °F 10% 29.73 in 10.0 mi ESE 3.5 mph - N/A   Clear
6:52 PM 84.9 °F 27.0 °F 12% 29.73 in 10.0 mi SSE 5.8 mph - N/A   Clear
7:52 PM 81.0 °F 30.9 °F 16% 29.75 in 10.0 mi South 3.5 mph - N/A   Clear
8:52 PM 78.1 °F 24.1 °F 14% 29.75 in 10.0 mi WSW 5.8 mph - N/A   Clear
9:52 PM 73.0 °F 30.9 °F 21% 29.77 in 10.0 mi South 3.5 mph - N/A   Clear
10:52 PM 75.9 °F 30.0 °F 19% 29.76 in 10.0 mi West 10.4 mph - N/A   Clear
11:52 PM 75.9 °F 30.9 °F 19% 29.77 in 10.0 mi WSW 10.4 mph - N/A   Clear